Weather History for Andalusia, AL

Change the Weather History Date:

Monday, November 19, 2012

  Actual Average (KCEW) Record (KCEW)
Temperature  
Mean Temperature 56 °F -  
Max Temperature 70 °F 70 °F 81 °F (1981)
Min Temperature 43 °F 47 °F 17 °F (2014)
Degree Days  
Heating Degree Days 8    
Growing Degree Days 6 (Base 50)    
Moisture  
Dew Point 43 °F    
Average Humidity 65    
Maximum Humidity 82    
Minimum Humidity 38    
Precipitation  
Precipitation 0.00 in - - ()
Sea Level Pressure  
Sea Level Pressure 30.22 in    
Wind  
Wind Speed 2 mph (NE)    
Max Wind Speed 9 mph    
Max Gust Speed -    
Visibility 10 miles    
Events      
Averages and records for this station are not official NWS values.
T = Trace of Precipitation, MM = Missing Value Source: NWS Daily Summary

Daily Weather History Graph

Daily Weather History Graph

Search for Another Location

Airport:

Trip Planner

Search our weather history database for the weather conditions in past years. The results will help you decide how hot, cold, wet, or windy it might be!

Date:

Astronomy

Nov. 19, 2012 Rise Set
Actual Time 6:16 AM CST 4:45 PM CST
Civil Twilight 5:50 AM CST 5:10 PM CST
Nautical Twilight 5:21 AM CST 5:40 PM CST
Astronomical Twilight 4:52 AM CST 6:09 PM CST
Moon 11:27 AM CST (11/19) 11:01 PM CST (11/19)
Length of Visible Light 11h 19m
Length of Day
10h 28m
Waxing Crescent, 41% of the Moon is Illuminated
Nov 19
Waxing Crescent
Nov 20
First Quarter
Nov 28
Full
Dec 6
Last Quarter
Dec 13
New

Hourly Weather History & Observations

Time (CST) Temp. Dew Point Humidity Pressure Visibility Wind Dir Wind Speed Gust Speed Precip Events Conditions
12:56 AM 50.0 °F 41.0 °F 71% 30.26 in 10.0 mi Calm Calm - N/A   Clear
1:56 AM 46.0 °F 39.0 °F 76% 30.27 in 10.0 mi Calm Calm - N/A   Clear
2:56 AM 45.0 °F 39.0 °F 80% 30.26 in 10.0 mi Calm Calm - N/A   Clear
3:56 AM 43.0 °F 37.9 °F 82% 30.25 in 10.0 mi Calm Calm - N/A   Clear
4:56 AM 43.0 °F 37.9 °F 82% 30.26 in 10.0 mi Calm Calm - N/A   Clear
5:56 AM 43.0 °F 37.9 °F 82% 30.26 in 10.0 mi Calm Calm - N/A   Clear
6:56 AM 44.1 °F 39.0 °F 82% 30.27 in 10.0 mi Calm Calm - N/A   Clear
7:56 AM 54.0 °F 45.0 °F 72% 30.27 in 10.0 mi ESE 4.6 mph - N/A   Clear
8:56 AM 60.1 °F 46.0 °F 60% 30.27 in 10.0 mi ESE 5.8 mph - N/A   Clear
9:56 AM 64.0 °F 46.9 °F 54% 30.27 in 10.0 mi East 4.6 mph - N/A   Clear
10:56 AM 66.9 °F 48.0 °F 51% 30.25 in 10.0 mi NNE 5.8 mph - N/A   Clear
11:56 AM 69.1 °F 46.0 °F 44% 30.22 in 10.0 mi Variable 5.8 mph - N/A   Clear
12:56 PM 69.1 °F 46.9 °F 45% 30.20 in 10.0 mi North 4.6 mph - N/A   Clear
1:56 PM 70.0 °F 44.1 °F 39% 30.19 in 10.0 mi Variable 6.9 mph - N/A   Clear
2:56 PM 70.0 °F 43.0 °F 38% 30.18 in 10.0 mi NNE 9.2 mph - N/A   Clear
3:56 PM 69.1 °F 43.0 °F 39% 30.17 in 10.0 mi NNE 8.1 mph - N/A   Clear
4:56 PM 63.0 °F 44.1 °F 50% 30.17 in 10.0 mi NNE 3.5 mph - N/A   Clear
5:56 PM 61.0 °F 44.1 °F 54% 30.17 in 10.0 mi NE 3.5 mph - N/A   Clear
6:56 PM 55.0 °F 44.1 °F 67% 30.19 in 10.0 mi Calm Calm - N/A   Clear
7:56 PM 51.1 °F 44.1 °F 77% 30.19 in 10.0 mi Calm Calm - N/A   Clear
8:56 PM 50.0 °F 43.0 °F 77% 30.19 in 10.0 mi Calm Calm - N/A   Clear
9:56 PM 53.1 °F 43.0 °F 69% 30.18 in 10.0 mi Calm Calm - N/A   Clear
10:56 PM 48.9 °F 43.0 °F 80% 30.17 in 10.0 mi Calm Calm - N/A   Clear
11:56 PM 48.0 °F 41.0 °F 77% 30.16 in 9.0 mi Calm Calm - N/A   Clear